sat.trackr.live / text

‹ back to catalog

ONEWEB-0557

NORAD 56058 · 2023-043N

PAYLOAD ACTIVE UNKNOWN

§ Identity

Operator
Country
UK
Launch date
2023-03-26
Launch site
SRILR
Launch vehicle
Mass (kg)
RCS (m²)

Purposes: comms

External: N2YO · Heavens-Above · Gunter

§ Orbital elements

Epoch: 2026-05-25T04:39:58.210272Z

Period
109.37 min
Inclination
87.9105°
Eccentricity
0.0003292
Mean motion
13.16596628 rev/d
Perigee alt
1,195.3 km
Apogee alt
1,200.2 km
Semi-major
7,575.9 km
B*
-8.3239e-5
RAAN
233.3461°
Arg perigee
95.8709°
Mean anomaly
264.2797°
Rev number
15,593

§ Raw data

ONEWEB-05571 56058U 23043N   26145.19442373 -.00000019  00000+0 -83239-4 0  99972 56058  87.9105 233.3461 0003292  95.8709 264.2797 13.16596628155939

JSON: /api/v1/satellites/56058 · /tle

For live sub-satellite position, see the globe view (requires WebGL).

§ Visibility from observer

Set your observer location to see the next 7 days of passes ≥ 10°. The values pass through the URL so the page stays shareable.

No JS? Fill the form by hand. The geolocation button needs JavaScript.